Regional Weather Roundup
Issued by NWS

Home | Current Version | Previous Version | Text Only | Print | Product List | Glossary On
Versions: 1 2 3 4 5 6 7 8 9 10 11 12 13 14 15 16 17 18 19 20 21 22 23 24 25 26 27 28 29 30 31 32 33 34 35 36 37 38 39 40 41 42 43 44 45 46 47 48 49 50
000
ASUS44 KOUN 051300
RWROK

WEATHER ROUNDUP FOR OKLAHOMA
NATIONAL WEATHER SERVICE NORMAN OK
800 AM CDT SUN JUL 05 2015

NOTE: "FAIR" INDICATES FEW OR NO CLOUDS BELOW 12,000 FEET WITH NO
      SIGNIFICANT WEATHER AND/OR OBSTRUCTIONS TO VISIBILITY.

OKZ001>007-009>012-014-015-017-051400-
NORTHWEST OKLAHOMA AND THE PANHANDLE

CITY           SKY/WX    TMP DP  RH WIND       PRES   REMARKS
GAGE           MOSUNNY   75  66  73 S14       29.96S
GUYMON         SUNNY     74  62  66 S17       29.95F
ENID/WOODRING  MOSUNNY   77  72  83 S10       29.94R
$$

OKZ016-021>023-033>039-044-045-051400-
SOUTHWEST OKLAHOMA

CITY           SKY/WX    TMP DP  RH WIND       PRES   REMARKS
LAWTON/REGL    CLOUDY    78  70  76 S10       29.99R
LAWTON/FT SILL MOSUNNY   77  72  85 S8        29.98R
FREDERICK      SUNNY     76  69  79 S10       29.96R
CLINTON        SUNNY     76  68  76 S15       29.99R
HOBART         SUNNY     77  69  76 S14       29.99R
$$

OKZ018>020-024>031-051400-
CENTRAL OKLAHOMA

CITY           SKY/WX    TMP DP  RH WIND       PRES   REMARKS
OKLAHOMA CITY  MOSUNNY   75  72  90 S10       29.99R
OKC/WILEY POST SUNNY     76  71  85 S17       29.98R
STILLWATER     SUNNY     73  69  87 S8        29.96S
GUTHRIE        SUNNY     77  71  82 S12       29.97R
$$

OKZ008-013-054>072-051400-
NORTHEAST OKLAHOMA

CITY           SKY/WX    TMP DP  RH WIND       PRES   REMARKS
TULSA          MOSUNNY   76  71  85 S13       29.99S
TULSA/JONES    PTSUNNY   75  70  84 S7        29.99S
PONCA CITY     MOSUNNY   74  69  85 SE12      29.95S
BARTLESVILLE   MOSUNNY   73  71  93 S7        29.99S
MUSKOGEE       SUNNY     75  72  90 SE8       30.01S
$$

OKZ032-040>043-046>053-073>077-051400-
SOUTH CENTRAL/SOUTHEAST OKLAHOMA

CITY           SKY/WX    TMP DP  RH WIND       PRES   REMARKS
MCALESTER      MOSUNNY   77  73  87 S6        30.02S
$$



USA.gov is the U.S. government's official web portal to all federal, state and local government web resources and services.